Voltar ao catálogo

COSMOS 2213

AtivoMilitarPO
NORAD 22184·PAYLOAD·🇷🇺 Russia

Lançado Oct 20, 1992 de Plesetsk Cosmodrome

Loading…

Próximas Passagens (próximas 24 horas)

TLE

AtualizadoSource: Space-Track

Época: Sep 14, 2026, 01:56 UTC

1 22184U 92068C   26257.08082277  .00000010  00000-0 -52735-5 0  9997
2 22184  82.5969 290.4332 0001834 299.7008  88.4193 12.62614123562174

Acompanhe COSMOS 2213 em tempo real com AllMySat

Download on the App Store